owner,sensor,date,latitude,longitude,air_temperature,qcFlag 
TABS,ioos:station:TABS:X:1,2016-07-18T22:30:00Z,27.0660,-96.3383,-28.7,11144222 
TABS,ioos:station:TABS:X:1,2016-07-18T23:00:00Z,27.0660,-96.3383,-28.7,11144222 
TABS,ioos:station:TABS:X:1,2016-07-18T23:30:00Z,27.0660,-96.3383,-28.4,11144222 
TABS,ioos:station:TABS:X:1,2016-07-19T00:00:00Z,27.0660,-96.3383,-28.7,11144222 
TABS,ioos:station:TABS:X:1,2016-07-19T00:30:00Z,27.0660,-96.3383,-28.7,11144222 
TABS,ioos:station:TABS:X:1,2016-07-19T01:00:00Z,27.0660,-96.3383,-28.7,11144222 
TABS,ioos:station:TABS:X:1,2016-07-19T01:30:00Z,27.0660,-96.3383,-28.4,11144222 
TABS,ioos:station:TABS:X:1,2016-07-19T02:00:00Z,27.0660,-96.3383,-28.7,11144222 
TABS,ioos:station:TABS:X:1,2016-07-19T02:30:00Z,27.0660,-96.3383,-28.7,11144222 
TABS,ioos:station:TABS:X:1,2016-07-19T03:00:00Z,27.0660,-96.3383,-28.7,11144222 
TABS,ioos:station:TABS:X:1,2016-07-19T03:30:00Z,27.0660,-96.3383,-28.4,11144222 
TABS,ioos:station:TABS:X:1,2016-07-19T04:00:00Z,27.0660,-96.3383,-29.1,11144222 
TABS,ioos:station:TABS:X:1,2016-07-19T04:30:00Z,27.0660,-96.3383,-28.7,11144222 
TABS,ioos:station:TABS:X:1,2016-07-19T05:00:00Z,27.0660,-96.3383,-28.7,11144222 
TABS,ioos:station:TABS:X:1,2016-07-19T05:30:00Z,27.0660,-96.3383,-28.7,11144222 
TABS,ioos:station:TABS:X:1,2016-07-19T06:00:00Z,27.0660,-96.3383,-28.7,11144222 
TABS,ioos:station:TABS:X:1,2016-07-19T06:30:00Z,27.0660,-96.3383,-28.7,11144222 
TABS,ioos:station:TABS:X:1,2016-07-19T07:00:00Z,27.0660,-96.3383,-28.7,11144222 
TABS,ioos:station:TABS:X:1,2016-07-19T07:30:00Z,27.0660,-96.3383,-28.4,11144222 
TABS,ioos:station:TABS:X:1,2016-07-19T08:00:00Z,27.0660,-96.3383,-28.7,11144222 
TABS,ioos:station:TABS:X:1,2016-07-19T08:30:00Z,27.0660,-96.3383,-28.4,11144222 
TABS,ioos:station:TABS:X:1,2016-07-19T09:00:00Z,27.0660,-96.3383,-28.7,11144222 
TABS,ioos:station:TABS:X:1,2016-07-19T09:30:00Z,27.0660,-96.3383,-28.7,11144222 
TABS,ioos:station:TABS:X:1,2016-07-19T10:00:00Z,27.0660,-96.3383,-28.9,11144222 
TABS,ioos:station:TABS:X:1,2016-07-19T10:30:00Z,27.0660,-96.3383,-28.4,11144222 
TABS,ioos:station:TABS:X:1,2016-07-19T11:00:00Z,27.0660,-96.3383,-28.7,11144222 
TABS,ioos:station:TABS:X:1,2016-07-19T11:30:00Z,27.0660,-96.3383,-28.4,11144222 
TABS,ioos:station:TABS:X:1,2016-07-19T12:00:00Z,27.0660,-96.3383,-28.7,11144222 
TABS,ioos:station:TABS:X:1,2016-07-19T12:30:00Z,27.0660,-96.3383,-28.7,11144222 
TABS,ioos:station:TABS:X:1,2016-07-19T13:00:00Z,27.0660,-96.3383,-28.7,11144222 
TABS,ioos:station:TABS:X:1,2016-07-19T13:30:00Z,27.0660,-96.3383,-28.4,11144222 
TABS,ioos:station:TABS:X:1,2016-07-19T14:00:00Z,27.0660,-96.3383,-28.4,11144222 
TABS,ioos:station:TABS:X:1,2016-07-19T14:30:00Z,27.0660,-96.3383,-28.4,11144222 
TABS,ioos:station:TABS:X:1,2016-07-19T15:00:00Z,27.0660,-96.3383,-28.7,11144222 
TABS,ioos:station:TABS:X:1,2016-07-19T15:30:00Z,27.0660,-96.3383,-28.4,11144222 
TABS,ioos:station:TABS:X:1,2016-07-19T17:00:00Z,27.0660,-96.3383,48.5,11144222 
TABS,ioos:station:TABS:X:1,2016-07-19T17:30:00Z,27.0660,-96.3383,48.3,11144222 
TABS,ioos:station:TABS:X:1,2016-07-19T18:00:00Z,27.0660,-96.3383,51.9,11144222 
TABS,ioos:station:TABS:X:1,2016-07-19T18:30:00Z,27.0660,-96.3383,48.5,11144222 
TABS,ioos:station:TABS:X:1,2016-07-19T19:00:00Z,27.0660,-96.3383,49.0,11144222 
TABS,ioos:station:TABS:X:1,2016-07-19T19:30:00Z,27.0660,-96.3383,50.5,11144222 
TABS,ioos:station:TABS:X:1,2016-07-19T20:00:00Z,27.0660,-96.3383,50.2,11144222 
TABS,ioos:station:TABS:X:1,2016-07-19T20:30:00Z,27.0660,-96.3383,54.4,11144222 
TABS,ioos:station:TABS:X:1,2016-07-19T21:00:00Z,27.0660,-96.3383,50.5,11144222 
TABS,ioos:station:TABS:X:1,2016-07-19T21:30:00Z,27.0660,-96.3383,50.2,11144222 
TABS,ioos:station:TABS:X:1,2016-07-19T22:00:00Z,27.0660,-96.3383,51.4,11144222 
TABS,ioos:station:TABS:X:1,2016-07-19T22:30:00Z,27.0660,-96.3383,50.5,11144222 
TABS,ioos:station:TABS:X:1,2016-07-19T23:00:00Z,27.0660,-96.3383,49.5,11144222 
TABS,ioos:station:TABS:X:1,2016-07-19T23:30:00Z,27.0660,-96.3383,46.3,11144222 
TABS,ioos:station:TABS:X:1,2016-07-20T00:00:00Z,27.0660,-96.3383,40.5,11144222 
TABS,ioos:station:TABS:X:1,2016-07-20T00:30:00Z,27.0660,-96.3383,38.5,11144222 
TABS,ioos:station:TABS:X:1,2016-07-20T01:00:00Z,27.0660,-96.3383,37.8,11144222 
TABS,ioos:station:TABS:X:1,2016-07-20T01:30:00Z,27.0660,-96.3383,36.5,11144222 
TABS,ioos:station:TABS:X:1,2016-07-20T02:00:00Z,27.0660,-96.3383,35.1,11144222 
TABS,ioos:station:TABS:X:1,2016-07-20T02:30:00Z,27.0660,-96.3383,34.8,11144222 
TABS,ioos:station:TABS:X:1,2016-07-20T03:00:00Z,27.0660,-96.3383,33.9,11144222 
TABS,ioos:station:TABS:X:1,2016-07-20T03:30:00Z,27.0660,-96.3383,33.9,11144222 
TABS,ioos:station:TABS:X:1,2016-07-20T04:00:00Z,27.0660,-96.3383,33.1,11144222 
TABS,ioos:station:TABS:X:1,2016-07-20T04:30:00Z,27.0660,-96.3383,32.4,11144222 
TABS,ioos:station:TABS:X:1,2016-07-20T05:00:00Z,27.0660,-96.3383,32.1,11144222 
TABS,ioos:station:TABS:X:1,2016-07-20T05:30:00Z,27.0660,-96.3383,32.4,11144222 
TABS,ioos:station:TABS:X:1,2016-07-20T06:00:00Z,27.0660,-96.3383,31.7,11144222 
TABS,ioos:station:TABS:X:1,2016-07-20T06:30:00Z,27.0660,-96.3383,31.9,11144222 
TABS,ioos:station:TABS:X:1,2016-07-20T07:00:00Z,27.0660,-96.3383,31.9,11144222 
TABS,ioos:station:TABS:X:1,2016-07-20T07:30:00Z,27.0660,-96.3383,31.7,11144222 
TABS,ioos:station:TABS:X:1,2016-07-20T08:00:00Z,27.0660,-96.3383,30.0,11144222 
TABS,ioos:station:TABS:X:1,2016-07-20T08:30:00Z,27.0660,-96.3383,30.4,11144222 
TABS,ioos:station:TABS:X:1,2016-07-20T09:00:00Z,27.0660,-96.3383,30.4,11144222 
TABS,ioos:station:TABS:X:1,2016-07-20T09:30:00Z,27.0660,-96.3383,30.4,11144222 
TABS,ioos:station:TABS:X:1,2016-07-20T10:00:00Z,27.0660,-96.3383,30.0,11144222 
TABS,ioos:station:TABS:X:1,2016-07-20T10:30:00Z,27.0660,-96.3383,30.2,11144222 
TABS,ioos:station:TABS:X:1,2016-07-20T11:00:00Z,27.0660,-96.3383,29.5,11144222 
TABS,ioos:station:TABS:X:1,2016-07-20T11:30:00Z,27.0660,-96.3383,29.2,11144222 
TABS,ioos:station:TABS:X:1,2016-07-20T12:00:00Z,27.0660,-96.3383,33.4,11144222 
TABS,ioos:station:TABS:X:1,2016-07-20T12:30:00Z,27.0660,-96.3383,31.7,11144222 
TABS,ioos:station:TABS:X:1,2016-07-20T13:00:00Z,27.0660,-96.3383,35.1,11144222 
TABS,ioos:station:TABS:X:1,2016-07-20T13:30:00Z,27.0660,-96.3383,39.7,11144222 
TABS,ioos:station:TABS:X:1,2016-07-20T14:00:00Z,27.0660,-96.3383,47.8,11144222 
TABS,ioos:station:TABS:X:1,2016-07-20T14:30:00Z,27.0660,-96.3383,48.5,11144222 
TABS,ioos:station:TABS:X:1,2016-07-20T17:00:00Z,27.0660,-96.3383,54.4,11144222 
TABS,ioos:station:TABS:X:1,2016-07-20T17:30:00Z,27.0660,-96.3383,53.9,11144222 
TABS,ioos:station:TABS:X:1,2016-07-20T18:00:00Z,27.0660,-96.3383,58.8,11144222 
TABS,ioos:station:TABS:X:1,2016-07-20T18:30:00Z,27.0660,-96.3383,55.8,11144222 
TABS,ioos:station:TABS:X:1,2016-07-20T19:00:00Z,27.0660,-96.3383,52.7,11144222 
TABS,ioos:station:TABS:X:1,2016-07-20T19:30:00Z,27.0660,-96.3383,53.4,11144222 
TABS,ioos:station:TABS:X:1,2016-07-20T20:00:00Z,27.0660,-96.3383,52.7,11144222 
TABS,ioos:station:TABS:X:1,2016-07-20T20:30:00Z,27.0660,-96.3383,52.7,11144222 
TABS,ioos:station:TABS:X:1,2016-07-20T21:00:00Z,27.0660,-96.3383,52.9,11144222 
TABS,ioos:station:TABS:X:1,2016-07-20T23:30:00Z,27.0660,-96.3383,42.4,11144222 
TABS,ioos:station:TABS:X:1,2016-07-21T00:00:00Z,27.0660,-96.3383,39.5,11144222 
TABS,ioos:station:TABS:X:1,2016-07-21T00:30:00Z,27.0660,-96.3383,37.8,11144222 
TABS,ioos:station:TABS:X:1,2016-07-21T01:00:00Z,27.0660,-96.3383,36.1,11144222 
TABS,ioos:station:TABS:X:1,2016-07-21T01:30:00Z,27.0660,-96.3383,35.1,11144222 
TABS,ioos:station:TABS:X:1,2016-07-21T02:00:00Z,27.0660,-96.3383,33.9,11144222 
TABS,ioos:station:TABS:X:1,2016-07-21T02:30:00Z,27.0660,-96.3383,33.1,11144222 
TABS,ioos:station:TABS:X:1,2016-07-21T03:00:00Z,27.0660,-96.3383,32.6,11144222 
TABS,ioos:station:TABS:X:1,2016-07-21T03:30:00Z,27.0660,-96.3383,31.9,11144222 
TABS,ioos:station:TABS:X:1,2016-07-21T04:00:00Z,27.0660,-96.3383,31.4,11144222 
TABS,ioos:station:TABS:X:1,2016-07-21T04:30:00Z,27.0660,-96.3383,31.4,11144222 
TABS,ioos:station:TABS:X:1,2016-07-21T05:00:00Z,27.0660,-96.3383,30.7,11144222 
TABS,ioos:station:TABS:X:1,2016-07-21T05:30:00Z,27.0660,-96.3383,30.0,11144222 
TABS,ioos:station:TABS:X:1,2016-07-21T06:00:00Z,27.0660,-96.3383,30.0,11144222 
TABS,ioos:station:TABS:X:1,2016-07-21T06:30:00Z,27.0660,-96.3383,29.5,11144222 
TABS,ioos:station:TABS:X:1,2016-07-21T07:00:00Z,27.0660,-96.3383,29.0,11144222 
TABS,ioos:station:TABS:X:1,2016-07-21T07:30:00Z,27.0660,-96.3383,28.7,11144222 
TABS,ioos:station:TABS:X:1,2016-07-21T08:00:00Z,27.0660,-96.3383,28.2,11144222 
TABS,ioos:station:TABS:X:1,2016-07-21T08:30:00Z,27.0660,-96.3383,28.2,11144222 
TABS,ioos:station:TABS:X:1,2016-07-21T09:00:00Z,27.0660,-96.3383,27.5,11144222 
TABS,ioos:station:TABS:X:1,2016-07-21T09:30:00Z,27.0660,-96.3383,27.5,11144222 
TABS,ioos:station:TABS:X:1,2016-07-21T10:00:00Z,27.0660,-96.3383,27.0,11144222 
TABS,ioos:station:TABS:X:1,2016-07-21T10:30:00Z,27.0660,-96.3383,27.0,11144222 
TABS,ioos:station:TABS:X:1,2016-07-21T11:00:00Z,27.0660,-96.3383,26.8,11144222 
TABS,ioos:station:TABS:X:1,2016-07-21T11:30:00Z,27.0660,-96.3383,26.3,11144222 
TABS,ioos:station:TABS:X:1,2016-07-21T12:00:00Z,27.0660,-96.3383,28.5,11144222 
TABS,ioos:station:TABS:X:1,2016-07-21T12:30:00Z,27.0660,-96.3383,32.6,11144222 
TABS,ioos:station:TABS:X:1,2016-07-21T13:00:00Z,27.0660,-96.3383,36.3,11144222 
TABS,ioos:station:TABS:X:1,2016-07-21T13:30:00Z,27.0660,-96.3383,39.5,11144222 
TABS,ioos:station:TABS:X:1,2016-07-21T14:00:00Z,27.0660,-96.3383,42.6,11144222 
TABS,ioos:station:TABS:X:1,2016-07-21T14:30:00Z,27.0660,-96.3383,44.8,11144222 
TABS,ioos:station:TABS:X:1,2016-07-21T15:00:00Z,27.0660,-96.3383,46.6,11144222 
TABS,ioos:station:TABS:X:1,2016-07-21T15:30:00Z,27.0660,-96.3383,47.8,11144222 
TABS,ioos:station:TABS:X:1,2016-07-21T16:00:00Z,27.0660,-96.3383,49.5,11144222 
TABS,ioos:station:TABS:X:1,2016-07-21T16:30:00Z,27.0660,-96.3383,50.7,11144222 
TABS,ioos:station:TABS:X:1,2016-07-21T17:00:00Z,27.0660,-96.3383,51.9,11144222 
TABS,ioos:station:TABS:X:1,2016-07-21T17:30:00Z,27.0660,-96.3383,52.9,11144222 
TABS,ioos:station:TABS:X:1,2016-07-21T18:00:00Z,27.0660,-96.3383,53.2,11144222 
TABS,ioos:station:TABS:X:1,2016-07-21T18:30:00Z,27.0660,-96.3383,47.5,11144222 
TABS,ioos:station:TABS:X:1,2016-07-21T19:00:00Z,27.0660,-96.3383,39.5,11144222 
TABS,ioos:station:TABS:X:1,2016-07-21T19:30:00Z,27.0660,-96.3383,39.5,11144222 
TABS,ioos:station:TABS:X:1,2016-07-21T20:00:00Z,27.0660,-96.3383,40.9,11144222 
TABS,ioos:station:TABS:X:1,2016-07-21T20:30:00Z,27.0660,-96.3383,40.7,11144222 
TABS,ioos:station:TABS:X:1,2016-07-21T21:00:00Z,27.0660,-96.3383,40.2,11144222 
TABS,ioos:station:TABS:X:1,2016-07-21T21:30:00Z,27.0660,-96.3383,41.2,11144222 
TABS,ioos:station:TABS:X:1,2016-07-21T22:00:00Z,27.0660,-96.3383,40.9,11144222 
TABS,ioos:station:TABS:X:1,2016-07-21T22:30:00Z,27.0660,-96.3383,38.7,11144222 
TABS,ioos:station:TABS:X:1,2016-07-21T23:00:00Z,27.0660,-96.3383,40.0,11144222 
TABS,ioos:station:TABS:X:1,2016-07-21T23:30:00Z,27.0660,-96.3383,38.5,11144222 
TABS,ioos:station:TABS:X:1,2016-07-22T00:00:00Z,27.0660,-96.3383,37.8,11144222 
TABS,ioos:station:TABS:X:1,2016-07-22T00:30:00Z,27.0660,-96.3383,37.0,11144222 
TABS,ioos:station:TABS:X:1,2016-07-22T01:00:00Z,27.0660,-96.3383,36.1,11144222 
TABS,ioos:station:TABS:X:1,2016-07-22T01:30:00Z,27.0660,-96.3383,35.3,11144222 
TABS,ioos:station:TABS:X:1,2016-07-22T02:00:00Z,27.0660,-96.3383,34.6,11144222 
TABS,ioos:station:TABS:X:1,2016-07-22T02:30:00Z,27.0660,-96.3383,33.9,11144222 
TABS,ioos:station:TABS:X:1,2016-07-22T03:00:00Z,27.0660,-96.3383,33.4,11144222 
TABS,ioos:station:TABS:X:1,2016-07-22T03:30:00Z,27.0660,-96.3383,32.9,11144222 
TABS,ioos:station:TABS:X:1,2016-07-22T04:00:00Z,27.0660,-96.3383,31.9,11144222 
TABS,ioos:station:TABS:X:1,2016-07-22T04:30:00Z,27.0660,-96.3383,31.7,11144222 
TABS,ioos:station:TABS:X:1,2016-07-22T05:00:00Z,27.0660,-96.3383,30.7,11144222 
TABS,ioos:station:TABS:X:1,2016-07-22T05:30:00Z,27.0660,-96.3383,30.7,11144222 
TABS,ioos:station:TABS:X:1,2016-07-22T06:00:00Z,27.0660,-96.3383,30.0,11144222 
TABS,ioos:station:TABS:X:1,2016-07-22T06:30:00Z,27.0660,-96.3383,30.0,11144222 
TABS,ioos:station:TABS:X:1,2016-07-22T07:00:00Z,27.0660,-96.3383,29.0,11144222 
TABS,ioos:station:TABS:X:1,2016-07-22T07:30:00Z,27.0660,-96.3383,29.0,11144222 
TABS,ioos:station:TABS:X:1,2016-07-22T08:00:00Z,27.0660,-96.3383,29.0,11144222 
TABS,ioos:station:TABS:X:1,2016-07-22T08:30:00Z,27.0660,-96.3383,28.5,11144222 
TABS,ioos:station:TABS:X:1,2016-07-22T09:00:00Z,27.0660,-96.3383,27.8,11144222 
TABS,ioos:station:TABS:X:1,2016-07-22T09:30:00Z,27.0660,-96.3383,27.0,11144222 
TABS,ioos:station:TABS:X:1,2016-07-22T10:00:00Z,27.0660,-96.3383,27.5,11144222 
TABS,ioos:station:TABS:X:1,2016-07-22T10:30:00Z,27.0660,-96.3383,27.8,11144222 
TABS,ioos:station:TABS:X:1,2016-07-22T11:00:00Z,27.0660,-96.3383,27.3,11144222 
TABS,ioos:station:TABS:X:1,2016-07-22T11:30:00Z,27.0660,-96.3383,27.3,11144222 
TABS,ioos:station:TABS:X:1,2016-07-22T12:00:00Z,27.0660,-96.3383,27.8,11144222 
TABS,ioos:station:TABS:X:1,2016-07-22T12:30:00Z,27.0660,-96.3383,29.7,11144222 
TABS,ioos:station:TABS:X:1,2016-07-22T13:00:00Z,27.0660,-96.3383,30.2,11144222 
TABS,ioos:station:TABS:X:1,2016-07-22T13:30:00Z,27.0660,-96.3383,32.1,11144222 
TABS,ioos:station:TABS:X:1,2016-07-22T14:00:00Z,27.0660,-96.3383,34.3,11144222 
TABS,ioos:station:TABS:X:1,2016-07-22T14:30:00Z,27.0660,-96.3383,35.6,11144222 
TABS,ioos:station:TABS:X:1,2016-07-22T15:00:00Z,27.0660,-96.3383,36.3,11144222 
TABS,ioos:station:TABS:X:1,2016-07-22T15:30:00Z,27.0660,-96.3383,37.8,11144222 
TABS,ioos:station:TABS:X:1,2016-07-22T16:00:00Z,27.0660,-96.3383,39.0,11144222 
TABS,ioos:station:TABS:X:1,2016-07-22T16:30:00Z,27.0660,-96.3383,40.0,11144222 
TABS,ioos:station:TABS:X:1,2016-07-22T17:00:00Z,27.0660,-96.3383,40.9,11144222 
TABS,ioos:station:TABS:X:1,2016-07-22T17:30:00Z,27.0660,-96.3383,40.7,11144222 
TABS,ioos:station:TABS:X:1,2016-07-22T18:00:00Z,27.0660,-96.3383,40.9,11144222 
TABS,ioos:station:TABS:X:1,2016-07-22T18:30:00Z,27.0660,-96.3383,41.2,11144222 
TABS,ioos:station:TABS:X:1,2016-07-22T19:00:00Z,27.0660,-96.3383,40.7,11144222 
TABS,ioos:station:TABS:X:1,2016-07-22T19:30:00Z,27.0660,-96.3383,39.2,11144222 
TABS,ioos:station:TABS:X:1,2016-07-22T20:00:00Z,27.0660,-96.3383,41.4,11144222 
TABS,ioos:station:TABS:X:1,2016-07-22T20:30:00Z,27.0660,-96.3383,41.7,11144222 
TABS,ioos:station:TABS:X:1,2016-07-22T21:00:00Z,27.0660,-96.3383,40.5,11144222 
TABS,ioos:station:TABS:X:1,2016-07-22T21:30:00Z,27.0660,-96.3383,41.2,11144222 
TABS,ioos:station:TABS:X:1,2016-07-22T22:30:00Z,27.0660,-96.3383,40.2,11144222 
TABS,ioos:station:TABS:X:1,2016-07-22T23:00:00Z,27.0660,-96.3383,40.0,11144222 
TABS,ioos:station:TABS:X:1,2016-07-22T23:30:00Z,27.0660,-96.3383,38.5,11144222 
TABS,ioos:station:TABS:X:1,2016-07-23T00:00:00Z,27.0660,-96.3383,38.0,11144222 
TABS,ioos:station:TABS:X:1,2016-07-23T00:30:00Z,27.0660,-96.3383,37.8,11144222 
TABS,ioos:station:TABS:X:1,2016-07-23T01:00:00Z,27.0660,-96.3383,36.3,11144222 
TABS,ioos:station:TABS:X:1,2016-07-23T01:30:00Z,27.0660,-96.3383,36.1,11144222 
TABS,ioos:station:TABS:X:1,2016-07-23T02:00:00Z,27.0660,-96.3383,35.3,11144222 
TABS,ioos:station:TABS:X:1,2016-07-23T02:30:00Z,27.0660,-96.3383,34.6,11144222 
TABS,ioos:station:TABS:X:1,2016-07-23T03:00:00Z,27.0660,-96.3383,33.4,11144222 
TABS,ioos:station:TABS:X:1,2016-07-23T03:30:00Z,27.0660,-96.3383,33.4,11144222 
TABS,ioos:station:TABS:X:1,2016-07-23T04:00:00Z,27.0660,-96.3383,32.9,11144222 
TABS,ioos:station:TABS:X:1,2016-07-23T04:30:00Z,27.0660,-96.3383,32.1,11144222 
TABS,ioos:station:TABS:X:1,2016-07-23T05:00:00Z,27.0660,-96.3383,31.4,11144222 
TABS,ioos:station:TABS:X:1,2016-07-23T05:30:00Z,27.0660,-96.3383,31.2,11144222 
TABS,ioos:station:TABS:X:1,2016-07-23T06:00:00Z,27.0660,-96.3383,30.4,11144222 
TABS,ioos:station:TABS:X:1,2016-07-23T06:30:00Z,27.0660,-96.3383,30.0,11144222 
TABS,ioos:station:TABS:X:1,2016-07-23T07:00:00Z,27.0660,-96.3383,29.7,11144222 
TABS,ioos:station:TABS:X:1,2016-07-23T07:30:00Z,27.0660,-96.3383,29.5,11144222 
TABS,ioos:station:TABS:X:1,2016-07-23T08:00:00Z,27.0660,-96.3383,28.7,11144222 
TABS,ioos:station:TABS:X:1,2016-07-23T08:30:00Z,27.0660,-96.3383,28.7,11144222 
TABS,ioos:station:TABS:X:1,2016-07-23T09:00:00Z,27.0660,-96.3383,28.7,11144222 
TABS,ioos:station:TABS:X:1,2016-07-23T09:30:00Z,27.0660,-96.3383,27.8,11144222 
TABS,ioos:station:TABS:X:1,2016-07-23T10:00:00Z,27.0660,-96.3383,27.8,11144222 
TABS,ioos:station:TABS:X:1,2016-07-23T10:30:00Z,27.0660,-96.3383,28.0,11144222 
TABS,ioos:station:TABS:X:1,2016-07-23T11:00:00Z,27.0660,-96.3383,27.8,11144222 
TABS,ioos:station:TABS:X:1,2016-07-23T11:30:00Z,27.0660,-96.3383,27.8,11144222 
TABS,ioos:station:TABS:X:1,2016-07-23T12:00:00Z,27.0660,-96.3383,28.5,11144222 
TABS,ioos:station:TABS:X:1,2016-07-23T12:30:00Z,27.0660,-96.3383,29.5,11144222 
TABS,ioos:station:TABS:X:1,2016-07-23T13:00:00Z,27.0660,-96.3383,30.7,11144222 
TABS,ioos:station:TABS:X:1,2016-07-23T13:30:00Z,27.0660,-96.3383,32.6,11144222 
TABS,ioos:station:TABS:X:1,2016-07-23T14:00:00Z,27.0660,-96.3383,34.1,11144222 
TABS,ioos:station:TABS:X:1,2016-07-23T14:30:00Z,27.0660,-96.3383,34.8,11144222 
TABS,ioos:station:TABS:X:1,2016-07-23T15:00:00Z,27.0660,-96.3383,35.8,11144222 
TABS,ioos:station:TABS:X:1,2016-07-23T15:30:00Z,27.0660,-96.3383,36.1,11144222 
TABS,ioos:station:TABS:X:1,2016-07-23T16:00:00Z,27.0660,-96.3383,38.3,11144222 
TABS,ioos:station:TABS:X:1,2016-07-23T16:30:00Z,27.0660,-96.3383,39.5,11144222 
TABS,ioos:station:TABS:X:1,2016-07-23T17:00:00Z,27.0660,-96.3383,39.5,11144222 
TABS,ioos:station:TABS:X:1,2016-07-23T17:30:00Z,27.0660,-96.3383,40.7,11144222 
TABS,ioos:station:TABS:X:1,2016-07-23T18:00:00Z,27.0660,-96.3383,40.2,11144222 
TABS,ioos:station:TABS:X:1,2016-07-23T18:30:00Z,27.0660,-96.3383,41.2,11144222 
TABS,ioos:station:TABS:X:1,2016-07-23T19:00:00Z,27.0660,-96.3383,40.7,11144222 
TABS,ioos:station:TABS:X:1,2016-07-23T19:30:00Z,27.0660,-96.3383,40.2,11144222 
TABS,ioos:station:TABS:X:1,2016-07-23T20:00:00Z,27.0660,-96.3383,40.2,11144222 
TABS,ioos:station:TABS:X:1,2016-07-23T20:30:00Z,27.0660,-96.3383,40.5,11144222 
TABS,ioos:station:TABS:X:1,2016-07-23T21:00:00Z,27.0660,-96.3383,39.5,11144222 
TABS,ioos:station:TABS:X:1,2016-07-23T21:30:00Z,27.0660,-96.3383,40.5,11144222 
TABS,ioos:station:TABS:X:1,2016-07-23T22:00:00Z,27.0660,-96.3383,41.2,11144222 
TABS,ioos:station:TABS:X:1,2016-07-23T22:30:00Z,27.0660,-96.3383,40.0,11144222 
TABS,ioos:station:TABS:X:1,2016-07-23T23:00:00Z,27.0660,-96.3383,39.5,11144222 
TABS,ioos:station:TABS:X:1,2016-07-23T23:30:00Z,27.0660,-96.3383,39.0,11144222 
TABS,ioos:station:TABS:X:1,2016-07-24T00:00:00Z,27.0660,-96.3383,38.0,11144222 
TABS,ioos:station:TABS:X:1,2016-07-24T00:30:00Z,27.0660,-96.3383,37.5,11144222 
TABS,ioos:station:TABS:X:1,2016-07-24T01:00:00Z,27.0660,-96.3383,36.5,11144222 
TABS,ioos:station:TABS:X:1,2016-07-24T01:30:00Z,27.0660,-96.3383,36.1,11144222 
TABS,ioos:station:TABS:X:1,2016-07-24T02:00:00Z,27.0660,-96.3383,35.1,11144222 
TABS,ioos:station:TABS:X:1,2016-07-24T02:30:00Z,27.0660,-96.3383,34.1,11144222 
TABS,ioos:station:TABS:X:1,2016-07-24T03:00:00Z,27.0660,-96.3383,33.4,11144222 
TABS,ioos:station:TABS:X:1,2016-07-24T03:30:00Z,27.0660,-96.3383,33.1,11144222 
TABS,ioos:station:TABS:X:1,2016-07-24T04:00:00Z,27.0660,-96.3383,32.1,11144222 
TABS,ioos:station:TABS:X:1,2016-07-24T04:30:00Z,27.0660,-96.3383,31.7,11144222 
TABS,ioos:station:TABS:X:1,2016-07-24T05:00:00Z,27.0660,-96.3383,31.2,11144222 
TABS,ioos:station:TABS:X:1,2016-07-24T05:30:00Z,27.0660,-96.3383,30.7,11144222 
TABS,ioos:station:TABS:X:1,2016-07-24T06:00:00Z,27.0660,-96.3383,30.4,11144222 
TABS,ioos:station:TABS:X:1,2016-07-24T06:30:00Z,27.0660,-96.3383,30.2,11144222 
TABS,ioos:station:TABS:X:1,2016-07-24T07:00:00Z,27.0660,-96.3383,29.5,11144222 
TABS,ioos:station:TABS:X:1,2016-07-24T07:30:00Z,27.0660,-96.3383,29.2,11144222 
TABS,ioos:station:TABS:X:1,2016-07-24T08:00:00Z,27.0660,-96.3383,29.0,11144222 
TABS,ioos:station:TABS:X:1,2016-07-24T08:30:00Z,27.0660,-96.3383,28.7,11144222 
TABS,ioos:station:TABS:X:1,2016-07-24T09:00:00Z,27.0660,-96.3383,28.2,11144222 
TABS,ioos:station:TABS:X:1,2016-07-24T09:30:00Z,27.0660,-96.3383,28.5,11144222 
TABS,ioos:station:TABS:X:1,2016-07-24T10:00:00Z,27.0660,-96.3383,28.0,11144222 
TABS,ioos:station:TABS:X:1,2016-07-24T10:30:00Z,27.0660,-96.3383,28.0,11144222 
TABS,ioos:station:TABS:X:1,2016-07-24T11:00:00Z,27.0660,-96.3383,27.5,11144222 
TABS,ioos:station:TABS:X:1,2016-07-24T11:30:00Z,27.0660,-96.3383,27.8,11144222 
TABS,ioos:station:TABS:X:1,2016-07-24T12:00:00Z,27.0660,-96.3383,28.2,11144222 
TABS,ioos:station:TABS:X:1,2016-07-24T12:30:00Z,27.0660,-96.3383,29.7,11144222 
TABS,ioos:station:TABS:X:1,2016-07-24T13:00:00Z,27.0660,-96.3383,31.7,11144222 
TABS,ioos:station:TABS:X:1,2016-07-24T13:30:00Z,27.0660,-96.3383,33.1,11144222 
TABS,ioos:station:TABS:X:1,2016-07-24T14:00:00Z,27.0660,-96.3383,34.6,11144222 
TABS,ioos:station:TABS:X:1,2016-07-24T14:30:00Z,27.0660,-96.3383,34.8,11144222 
TABS,ioos:station:TABS:X:1,2016-07-24T15:00:00Z,27.0660,-96.3383,36.8,11144222 
TABS,ioos:station:TABS:X:1,2016-07-24T15:30:00Z,27.0660,-96.3383,38.0,11144222 
TABS,ioos:station:TABS:X:1,2016-07-24T16:00:00Z,27.0660,-96.3383,37.3,11144222 
TABS,ioos:station:TABS:X:1,2016-07-24T16:30:00Z,27.0660,-96.3383,40.0,11144222 
TABS,ioos:station:TABS:X:1,2016-07-24T17:00:00Z,27.0660,-96.3383,40.7,11144222 
TABS,ioos:station:TABS:X:1,2016-07-24T17:30:00Z,27.0660,-96.3383,39.0,11144222 
TABS,ioos:station:TABS:X:1,2016-07-24T18:00:00Z,27.0660,-96.3383,39.2,11144222 
TABS,ioos:station:TABS:X:1,2016-07-24T18:30:00Z,27.0660,-96.3383,41.7,11144222 
TABS,ioos:station:TABS:X:1,2016-07-24T19:00:00Z,27.0660,-96.3383,42.2,11144222 
TABS,ioos:station:TABS:X:1,2016-07-24T19:30:00Z,27.0660,-96.3383,41.4,11144222 
TABS,ioos:station:TABS:X:1,2016-07-24T20:00:00Z,27.0660,-96.3383,39.5,11144222 
TABS,ioos:station:TABS:X:1,2016-07-24T20:30:00Z,27.0660,-96.3383,41.9,11144222 
TABS,ioos:station:TABS:X:1,2016-07-24T21:00:00Z,27.0660,-96.3383,41.2,11144222 
TABS,ioos:station:TABS:X:1,2016-07-24T21:30:00Z,27.0660,-96.3383,39.0,11144222 
TABS,ioos:station:TABS:X:1,2016-07-24T22:00:00Z,27.0660,-96.3383,40.9,11144222 
TABS,ioos:station:TABS:X:1,2016-07-24T22:30:00Z,27.0660,-96.3383,41.4,11144222 
TABS,ioos:station:TABS:X:1,2016-07-24T23:00:00Z,27.0660,-96.3383,40.2,11144222 
TABS,ioos:station:TABS:X:1,2016-07-24T23:30:00Z,27.0660,-96.3383,39.2,11144222 
TABS,ioos:station:TABS:X:1,2016-07-25T00:00:00Z,27.0660,-96.3383,38.5,11144222 
TABS,ioos:station:TABS:X:1,2016-07-25T00:30:00Z,27.0660,-96.3383,37.8,11144222 
TABS,ioos:station:TABS:X:1,2016-07-25T01:00:00Z,27.0660,-96.3383,35.3,11144222 
TABS,ioos:station:TABS:X:1,2016-07-25T01:30:00Z,27.0660,-96.3383,34.6,11144222 
TABS,ioos:station:TABS:X:1,2016-07-25T02:00:00Z,27.0660,-96.3383,33.9,11144222 
TABS,ioos:station:TABS:X:1,2016-07-25T02:30:00Z,27.0660,-96.3383,32.9,11144222 
TABS,ioos:station:TABS:X:1,2016-07-25T03:00:00Z,27.0660,-96.3383,32.9,11144222 
TABS,ioos:station:TABS:X:1,2016-07-25T03:30:00Z,27.0660,-96.3383,31.9,11144222 
TABS,ioos:station:TABS:X:1,2016-07-25T04:00:00Z,27.0660,-96.3383,31.7,11144222 
TABS,ioos:station:TABS:X:1,2016-07-25T04:30:00Z,27.0660,-96.3383,30.9,11144222 
TABS,ioos:station:TABS:X:1,2016-07-25T05:00:00Z,27.0660,-96.3383,30.7,11144222 
TABS,ioos:station:TABS:X:1,2016-07-25T05:30:00Z,27.0660,-96.3383,30.4,11144222 
TABS,ioos:station:TABS:X:1,2016-07-25T06:00:00Z,27.0660,-96.3383,30.2,11144222 
TABS,ioos:station:TABS:X:1,2016-07-25T06:30:00Z,27.0660,-96.3383,30.4,11144222 
TABS,ioos:station:TABS:X:1,2016-07-25T07:00:00Z,27.0660,-96.3383,29.7,11144222 
TABS,ioos:station:TABS:X:1,2016-07-25T07:30:00Z,27.0660,-96.3383,29.7,11144222 
TABS,ioos:station:TABS:X:1,2016-07-25T08:00:00Z,27.0660,-96.3383,29.2,11144222 
TABS,ioos:station:TABS:X:1,2016-07-25T08:30:00Z,27.0660,-96.3383,29.2,11144222 